Waarnemingen

Advertentie
Mijn weer
Biscarosse, Frankrijk (7503): temperatuur & dauwpunt: 15.08.2017 11:00:00 - 21.08.2017 11:00:00 (CEST)Biscarosse, Frankrijk (7503): temperatuur 5cm: 15.08.2017 11:00:00 - 21.08.2017 11:00:00 (CEST)Biscarosse, Frankrijk (7503): temperatuur -20cm & temperatuur -100cm: 15.08.2017 11:00:00 - 21.08.2017 11:00:00 (CEST)Biscarosse, Frankrijk (7503): windsnelheid & windstoten: 15.08.2017 11:00:00 - 21.08.2017 11:00:00 (CEST)Biscarosse, Frankrijk (7503): windrichting: 15.08.2017 11:00:00 - 21.08.2017 11:00:00 (CEST)Biscarosse, Frankrijk (7503): luchtdruk: 15.08.2017 11:00:00 - 21.08.2017 11:00:00 (CEST)Biscarosse, Frankrijk (7503): zicht: 15.08.2017 11:00:00 - 21.08.2017 11:00:00 (CEST)Biscarosse, Frankrijk (7503): Zonneschijnduur: 15.08.2017 11:00:00 - 21.08.2017 11:00:00 (CEST)Biscarosse, Frankrijk (7503): neerslag: 15.08.2017 11:00:00 - 21.08.2017 11:00:00 (CEST)
Datum & Tijd tt [°C] td [°C] tt 5cm [°C] tt -20cm [°C] tt -100cm [°C] ff [km/u] ff [kn] fx [km/u] fx [kn] dd ppp [hPa] vv [km] sd [min] rr [mm]
21.08.2017 11:00:00 24,7 12,0 25,7 25,2 25,2 21 12 33 18 O 1020,8 20 60 0,0
21.08.2017 10:00:00 21,3 11,6 22,3 25,3 25,2 16 8 29 16 O 1021,4 20 60 0,0
21.08.2017 09:00:00 18,7 10,8 16,5 25,7 25,2 10 5 21 11 O 1021,8 20 60 0,0
21.08.2017 08:00:00 16,6 10,7 16,0 25,9 25,2 14 7 25 14 O 1022,0 20 2 0,0
21.08.2017 07:00:00 17,0 11,3 16,4 26,3 25,2 15 8 29 16 O 1021,9 20 0 0,0
21.08.2017 06:00:00 17,4 11,2 16,7 26,6 25,2 16 9 27 15 O 1022,2 20 0 0,0
21.08.2017 05:00:00 17,2 12,7 16,6 26,9 25,1 14 8 26 14 O 1022,7 20 0 0,0
21.08.2017 04:00:00 17,3 13,0 16,8 27,3 25,1 15 8 24 13 O 1023,0 20 0 0,0
21.08.2017 03:00:00 17,5 13,0 17,0 27,6 25,1 16 8 27 14 O 1023,3 20 0 0,0
21.08.2017 02:00:00 18,1 13,0 17,6 28,0 25,1 16 9 29 15 O 1023,6 20 0 0,0
21.08.2017 01:00:00 18,6 13,2 18,1 28,4 25,1 16 8 26 14 ONO 1023,8 20 0 0,0
21.08.2017 00:00:00 18,6 13,5 16,1 28,7 25,1 11 6 17 9 NO 1024,0 20 0 0,0
20.08.2017 23:00:00 17,6 12,9 16,3 29,0 25,1 7 4 12 6 NO 1024,4 20 0 0,0
20.08.2017 22:00:00 18,4 13,0 17,3 29,2 25,1 7 4 23 12 NNO 1024,2 20 0 0,0
20.08.2017 21:00:00 19,7 12,7 - - - 18 10 35 19 N 1024,0 20 - 0,0
20.08.2017 20:00:00 21,3 13,0 23,3 29,1 25,2 24 13 37 20 N 1024,0 20 60 0,0
20.08.2017 19:00:00 22,0 12,8 23,6 28,7 25,2 28 15 36 20 N 1024,4 20 60 0,0
20.08.2017 18:00:00 22,5 12,4 23,9 28,1 25,2 29 16 35 19 NNW 1024,9 20 60 0,0
20.08.2017 17:00:00 22,9 12,2 30,6 27,4 25,2 26 14 34 18 NNW 1025,2 20 60 0,0
20.08.2017 16:00:00 22,8 12,4 30,8 26,7 25,2 26 14 32 18 N 1025,6 20 60 0,0
20.08.2017 15:00:00 21,6 12,2 31,3 25,9 25,2 20 11 24 13 NNW 1026,0 20 60 0,0
20.08.2017 14:00:00 21,8 11,2 29,9 25,2 25,2 16 9 22 12 NW 1026,1 20 60 0,0
20.08.2017 13:00:00 22,3 12,0 28,5 24,7 25,2 13 7 21 12 NW 1026,4 20 60 0,0
20.08.2017 12:00:00 21,7 10,2 26,9 24,5 25,3 9 5 20 11 ONO 1026,7 20 60 0,0
20.08.2017 11:00:00 20,6 11,0 23,0 24,5 25,2 9 5 18 10 ONO 1026,9 20 60 0,0
20.08.2017 10:00:00 18,7 10,8 19,9 24,7 25,2 10 5 21 11 ONO 1026,6 20 60 0,0
20.08.2017 09:00:00 16,5 11,8 14,2 24,9 25,2 11 6 21 11 ONO 1026,6 20 60 0,0
20.08.2017 08:00:00 14,4 12,1 12,6 25,2 25,2 10 6 15 8 ONO 1026,4 20 3 0,0
20.08.2017 07:00:00 14,6 11,9 13,6 25,6 25,2 10 5 15 8 ONO 1026,0 20 0 0,0
20.08.2017 06:00:00 14,9 11,7 14,2 26,0 25,2 10 5 16 9 ONO 1025,7 20 0 0,0
20.08.2017 05:00:00 15,1 11,3 14,5 26,3 25,2 9 5 14 8 ONO 1025,8 20 0 0,0
20.08.2017 04:00:00 15,4 10,8 13,8 26,7 25,2 9 5 13 7 NO 1025,6 20 0 0,0
20.08.2017 03:00:00 15,3 10,5 14,3 27,1 25,2 10 5 16 8 NO 1025,6 20 0 0,0
20.08.2017 02:00:00 15,8 11,2 14,8 27,5 25,2 10 5 16 8 NO 1025,8 20 0 0,0
20.08.2017 01:00:00 16,2 10,5 15,3 27,9 25,2 11 6 17 9 NO 1025,8 20 0 0,0
20.08.2017 00:00:00 16,3 10,6 15,4 28,2 25,2 10 5 19 10 NNO 1025,9 20 0 0,0
19.08.2017 23:00:00 17,0 11,3 16,0 28,5 25,2 8 5 18 10 N 1025,7 20 0 0,0
19.08.2017 22:00:00 17,7 11,0 16,8 28,8 25,2 11 6 29 15 N 1025,0 20 0 0,0
19.08.2017 21:00:00 19,0 11,1 18,3 28,8 25,2 23 12 31 17 NNW 1024,3 20 40 0,0
19.08.2017 20:00:00 20,6 11,0 22,7 28,7 25,2 24 13 30 16 N 1024,5 20 60 0,0
19.08.2017 19:00:00 21,4 10,8 23,3 28,2 25,2 20 11 27 15 NNW 1024,3 20 60 0,0
19.08.2017 18:00:00 22,2 11,3 23,8 27,7 25,3 24 13 31 17 NNW 1024,4 20 60 0,0
19.08.2017 17:00:00 21,9 11,0 28,7 27,2 25,3 23 12 32 18 N 1024,6 20 60 0,0
19.08.2017 16:00:00 22,4 11,5 29,1 26,5 25,3 23 13 29 16 NNW 1024,5 20 60 0,0
19.08.2017 15:00:00 21,8 12,6 29,8 25,8 25,3 19 10 23 12 NNW 1024,7 20 60 0,0
19.08.2017 14:00:00 21,2 11,2 24,7 25,3 25,3 16 9 21 12 NNW 1024,8 20 47 0,0
19.08.2017 13:00:00 20,1 11,6 24,6 24,9 25,3 14 8 20 11 NNW 1024,9 20 31 0,0
19.08.2017 12:00:00 20,8 11,1 23,0 24,7 25,3 7 4 18 10 NW 1024,9 20 45 0,0
19.08.2017 11:00:00 20,2 12,4 21,0 24,7 25,3 10 5 22 12 ONO 1024,8 20 43 0,0
19.08.2017 10:00:00 18,7 12,9 17,9 24,8 25,4 13 7 22 12 O 1024,5 20 41 0,0
19.08.2017 09:00:00 16,6 13,7 16,1 25,0 25,4 8 4 12 6 ONO 1024,4 20 25 0,0
19.08.2017 08:00:00 16,0 14,0 14,5 25,3 25,4 8 4 11 6 ONO 1024,1 20 0 0,0
19.08.2017 07:00:00 16,4 13,7 15,4 25,6 25,3 8 4 15 8 ONO 1023,3 20 0 0,0
19.08.2017 06:00:00 16,9 13,8 16,1 25,8 25,3 10 5 16 9 NO 1023,2 20 0 0,0
19.08.2017 05:00:00 17,2 14,7 16,3 26,1 25,4 9 5 13 7 NO 1023,0 20 0 0,0
19.08.2017 04:00:00 17,3 14,6 16,2 26,4 25,3 8 4 12 7 NNO 1022,8 20 0 0,0
19.08.2017 03:00:00 17,2 14,3 16,1 26,7 25,4 5 3 23 12 NNO 1023,0 20 0 0,0
19.08.2017 02:00:00 17,5 14,8 16,1 27,0 25,4 18 10 23 12 NNW 1023,1 20 0 0,0
19.08.2017 01:00:00 17,6 14,7 16,1 27,3 25,4 13 7 21 11 NNW 1023,1 20 0 0,0
19.08.2017 00:00:00 18,9 15,0 17,7 27,6 25,4 16 9 25 14 NNW 1022,9 18 0 0,0
18.08.2017 23:00:00 19,5 15,2 18,6 27,8 25,4 21 11 27 15 NNW 1022,7 20 0 0,0
18.08.2017 22:00:00 20,1 16,3 19,6 27,9 25,4 21 11 26 14 N 1022,3 20 0 0,0
18.08.2017 21:00:00 20,6 16,6 20,2 27,9 25,4 21 12 27 14 NW 1021,9 20 7 0,0
18.08.2017 20:00:00 21,5 16,9 22,9 27,7 25,4 14 8 18 10 W 1021,5 20 45 0,0
18.08.2017 19:00:00 22,0 17,4 24,6 27,4 25,4 13 7 18 10 W 1021,5 20 35 0,0
18.08.2017 18:00:00 22,8 17,5 26,3 27,1 25,4 14 8 18 10 W 1021,4 20 48 0,0
18.08.2017 17:00:00 22,7 16,9 25,4 26,8 25,4 15 8 17 9 WNW 1021,5 20 30 0,0
18.08.2017 16:00:00 22,4 18,0 23,7 26,7 25,4 8 4 17 9 NW 1021,1 20 3 0,0
18.08.2017 15:00:00 22,4 17,3 23,2 26,6 25,4 10 5 15 8 NW 1021,0 20 10 0,0
18.08.2017 14:00:00 20,5 18,1 20,1 26,5 25,4 6 4 35 19 O 1020,3 20 0 0,0
18.08.2017 13:00:00 21,9 18,1 22,5 26,5 25,4 24 13 38 20 NW 1020,2 20 0 0,0
18.08.2017 12:00:00 21,5 17,5 22,4 26,5 25,4 21 11 26 14 NW 1020,2 20 0 0,0
18.08.2017 11:00:00 21,9 18,7 24,5 26,5 25,3 15 8 18 10 WNW 1020,3 20 7 0,0
18.08.2017 10:00:00 21,7 19,4 21,9 26,5 25,3 12 6 14 8 WZW 1019,7 20 22 0,0
18.08.2017 09:00:00 19,9 18,7 18,9 26,8 25,3 9 5 13 7 WZW 1019,2 12 0 0,0
18.08.2017 08:00:00 18,6 17,4 17,2 27,1 25,3 0 0 4 2 N 1018,9 12 23 0,2
18.08.2017 07:00:00 18,4 17,4 16,8 27,4 25,3 0 0 5 3 N 1018,6 10 0 0,0
18.08.2017 06:00:00 18,5 17,5 16,6 27,7 25,3 0 0 5 3 N 1018,4 2,6 0 0,0
18.08.2017 05:00:00 18,4 17,1 16,6 28,0 25,3 0 0 6 3 N 1018,6 9 0 0,0
18.08.2017 04:00:00 19,0 17,7 18,2 28,4 25,2 3 2 12 6 NO 1018,6 19 0 0,0
18.08.2017 03:00:00 19,3 18,0 18,4 28,7 25,2 5 3 12 7 NNO 1019,0 20 0 0,0
18.08.2017 02:00:00 19,2 17,5 18,6 29,1 25,2 8 4 13 7 N 1019,2 20 0 0,0
18.08.2017 01:00:00 19,4 17,7 18,8 29,5 25,2 7 4 12 7 N 1019,2 20 0 0,0
18.08.2017 00:00:00 19,7 17,8 19,0 29,8 25,2 7 4 14 8 NO 1019,2 20 0 0,0
17.08.2017 23:00:00 20,3 17,9 19,6 30,1 25,2 9 5 21 11 N 1019,4 20 0 0,0
17.08.2017 22:00:00 20,5 17,5 19,6 30,4 25,2 9 5 26 14 N 1019,3 20 0 0,0
17.08.2017 21:00:00 21,8 18,0 21,1 30,4 25,2 18 10 26 14 N 1019,3 20 42 0,0
17.08.2017 20:00:00 23,5 17,9 26,0 30,3 25,2 18 10 27 14 NNW 1019,4 20 60 0,0
17.08.2017 19:00:00 23,6 18,3 26,5 29,9 25,2 19 10 25 13 NNO 1019,8 20 60 0,0
17.08.2017 18:00:00 24,3 18,0 26,3 29,3 25,2 12 7 15 8 NW 1020,1 20 60 0,0
17.08.2017 17:00:00 24,7 17,9 30,5 28,6 25,2 12 6 19 11 NW 1020,5 20 54 0,0
17.08.2017 16:00:00 24,4 17,4 30,4 27,8 25,2 9 5 20 11 NW 1021,0 20 56 0,0
17.08.2017 15:00:00 23,7 17,7 33,2 27,0 25,3 17 9 19 10 NW 1021,6 20 60 0,0
17.08.2017 14:00:00 23,1 18,0 32,7 26,1 25,3 14 7 16 9 WNW 1021,8 20 60 0,0
17.08.2017 13:00:00 23,6 17,3 32,9 25,5 25,3 13 7 16 9 W 1021,8 20 60 0,0
17.08.2017 12:00:00 23,3 17,7 - - - 11 6 15 8 ZW 1021,9 20 - 0,0
17.08.2017 11:00:00 22,2 17,8 25,0 24,9 25,2 8 4 9 5 ZW 1022,1 20 48 0,0
17.08.2017 10:00:00 21,4 18,2 23,4 25,0 25,3 5 3 9 5 ZZW 1022,0 20 60 0,0
17.08.2017 09:00:00 19,0 17,7 16,6 25,2 25,2 5 3 10 5 ZO 1021,8 20 60 0,0
17.08.2017 08:00:00 16,8 16,0 15,8 25,5 25,2 6 3 10 5 ZO 1021,2 19 1 0,0
17.08.2017 07:00:00 16,5 15,7 15,4 25,8 25,2 6 4 10 5 ZO 1021,2 19 0 0,2
17.08.2017 06:00:00 16,8 16,0 16,2 26,1 25,2 6 4 10 6 ZO 1021,0 16 0 0,0
17.08.2017 05:00:00 17,0 15,9 15,7 26,5 25,2 8 4 9 5 ZO 1020,9 20 0 0,0
17.08.2017 04:00:00 17,5 16,4 15,9 26,8 25,2 6 3 8 4 ZO 1021,3 20 0 0,0
17.08.2017 03:00:00 17,0 15,7 15,8 27,1 25,2 7 4 8 5 ZO 1021,5 20 0 0,0
17.08.2017 02:00:00 17,8 16,1 16,1 27,5 25,2 6 3 7 4 ZO 1021,8 20 0 0,0
17.08.2017 01:00:00 17,4 14,9 16,5 27,8 25,3 0 0 3 2 N 1022,2 20 0 0,0
17.08.2017 00:00:00 18,0 15,8 16,8 28,2 25,3 3 2 8 5 OZO 1022,5 20 0 0,0
16.08.2017 23:00:00 18,7 15,8 17,2 28,4 25,3 5 3 9 5 W 1022,9 20 0 0,0
16.08.2017 22:00:00 19,9 16,3 18,3 28,6 25,3 7 4 11 6 WNW 1022,8 20 0 0,0
16.08.2017 21:00:00 20,2 16,2 19,3 28,6 25,3 8 5 14 7 WNW 1022,6 20 18 0,0
16.08.2017 20:00:00 21,8 17,0 25,0 28,4 25,3 8 4 14 8 WNW 1022,4 20 60 0,0
16.08.2017 19:00:00 23,1 17,6 24,9 28,0 25,3 10 6 15 8 WNW 1022,4 20 60 0,0
16.08.2017 18:00:00 22,9 16,9 25,2 27,4 25,3 13 7 17 9 WNW 1022,5 20 60 0,0
16.08.2017 17:00:00 23,2 16,7 31,7 26,7 25,4 11 6 16 9 WNW 1022,4 20 60 0,0
16.08.2017 16:00:00 23,1 15,9 31,0 26,0 25,4 11 6 15 8 WNW 1022,6 20 60 0,0
16.08.2017 15:00:00 21,8 15,2 28,9 25,3 25,4 10 6 17 9 NW 1022,5 20 55 0,0
16.08.2017 14:00:00 22,8 14,9 27,0 24,8 25,4 10 6 17 9 WNW 1022,4 20 45 0,0
16.08.2017 13:00:00 21,5 16,0 25,9 24,6 25,4 12 7 16 8 NW 1022,8 20 27 0,0
16.08.2017 12:00:00 21,2 15,5 22,6 24,5 25,5 7 4 12 6 NW 1022,8 20 0 0,0
16.08.2017 11:00:00 19,7 16,2 20,8 24,5 25,5 4 2 12 7 ONO 1022,5 20 0 0,0
16.08.2017 10:00:00 18,6 16,0 18,8 24,6 25,5 5 3 11 6 O 1022,4 20 0 0,0
16.08.2017 09:00:00 18,1 16,3 18,2 24,7 25,5 3 2 6 4 O 1022,1 20 0 0,0
16.08.2017 08:00:00 18,0 16,3 18,0 24,9 25,5 5 3 9 5 O 1022,0 20 0 0,0
16.08.2017 07:00:00 18,0 16,2 17,8 25,0 25,5 5 3 10 5 O 1021,4 20 0 0,0
16.08.2017 06:00:00 17,7 16,0 17,1 25,2 25,5 6 4 8 5 NO 1021,1 20 0 0,0
16.08.2017 05:00:00 17,3 15,8 16,6 25,5 25,5 6 3 9 5 O 1021,1 20 0 0,0
16.08.2017 04:00:00 17,1 15,6 16,7 25,7 25,5 7 4 9 5 O 1021,6 20 0 0,0
16.08.2017 03:00:00 17,3 15,6 16,3 26,0 25,5 5 3 9 5 O 1021,8 20 0 0,0
16.08.2017 02:00:00 17,9 15,9 17,1 26,3 25,5 6 4 17 9 ONO 1022,0 20 0 0,0
16.08.2017 01:00:00 18,9 15,9 18,1 26,6 25,5 16 9 26 14 N 1022,2 20 0 0,0
16.08.2017 00:00:00 19,1 16,1 18,2 26,8 25,5 18 10 22 12 NNW 1022,2 20 0 0,0
15.08.2017 23:00:00 19,2 16,1 18,2 27,1 25,5 14 7 19 10 NW 1022,1 20 0 0,0
15.08.2017 22:00:00 19,4 16,4 18,4 27,3 25,5 14 8 17 9 NNW 1021,6 20 0 0,0
15.08.2017 21:00:00 19,8 15,4 19,2 27,4 25,5 13 7 16 9 NNW 1021,1 20 47 0,0
15.08.2017 20:00:00 21,3 16,3 23,5 27,4 25,5 11 6 14 8 NNW 1020,7 20 42 0,0
15.08.2017 19:00:00 22,4 17,1 24,2 27,4 25,5 9 5 16 9 NNW 1020,6 20 26 0,0
15.08.2017 18:00:00 21,2 16,6 24,4 27,3 25,5 13 7 16 9 NNW 1020,7 20 4 0,0
15.08.2017 17:00:00 21,1 16,9 21,7 27,3 25,5 9 5 15 8 NW 1020,5 20 0 0,0
15.08.2017 16:00:00 20,7 16,7 21,8 27,3 25,5 12 7 17 9 NW 1020,4 18 0 0,0
15.08.2017 15:00:00 21,8 17,4 24,9 27,2 25,5 13 7 20 11 NNW 1020,1 20 0 0,0
15.08.2017 14:00:00 21,3 17,1 22,8 27,2 25,5 17 9 21 11 NNW 1019,7 20 0 0,0
15.08.2017 13:00:00 21,2 17,6 24,2 27,2 25,4 11 6 16 9 WNW 1019,4 20 0 0,0
15.08.2017 12:00:00 21,2 17,6 24,5 27,2 25,4 13 7 18 10 W 1019,1 20 2 0,0
15.08.2017 11:00:00 21,7 17,9 22,1 27,3 25,4 8 4 10 5 W 1018,9 20 25 0,0

tt = temperatuur
td = dauwpunt
tt 5cm = temperatuur 5cm
tt -20cm = temperatuur -20cm
tt -100cm = temperatuur -100cm
ff = windsnelheid
fx = windstoten
dd = windrichting
ppp = luchtdruk
vv = zicht
sd = Zonneschijnduur
rr = neerslag

Weerstations in de omgeving